SCP
-0 -0 -0 0 0 0 -0 -0 -0 -0 -0 -0 0 -0 -0 -0 -0 -0 -0 0 0 0 -0 0 0 0 0 0 0 0 0 0 0 0 0 0 0 0 0 0 0 0 0 0 0 0 0 0 0
-0 -0 -0 0 0 0 -0 -0 -0 -0 -0 -0 0 0 -0 -0 -0 -0 -0 0 0 0 0 0 0 0 0 0 0 0 0 0 0 0 0 0 0 0 0 0 0 0 0 0 0 0 0 0 0
-0 -0 -0 0 -0 -0 -0 -0 -0 -0 -0 -0 0 -0 -0 -0 -0 -0 -0 0 0 0 0 0 0 0 0 0 0 0 0 0 0 0 0 0 0 0 0 0 0 0 0 0 0 0 0 0 0
0 -0 0 0 -0 -0 -0 -0 0 0 -0 -0 0 -0 -0 -0 0 -0 0 0 0 0 -0 -0 0 0 0 0 0 0 0 0 0 0 0 0 0 0 0 0 0 0 0 0 0 0 0 0 0
0 0 -0 0 -0 -0 -0 -0 -0 0 0 -0 0 -0 -0 -0 0 -0 0 0 0 0 -0 -0 0 0 0 0 0 0 0 0 0 0 0 0 0 0 0 0 0 0 0 0 0 0 0 0 0
0 0 0 -0 -0 0 0 0 0 0 0 -0 0 0 -0 -0 -0 -0 0 0 -0 0 -0 0 0 0 0 0 0 0 0 0 0 0 0 0 0 0 0 0 0 0 0 0 0 0 0 0 0
0 0 0 -0 -0 0 0 0 0 0 0 -0 0 0 -0 -0 0 0 0 0 0 0 0 0 0 0 0 0 0 0 0 0 0 0 0 0 0 0 0 0 0 0 0 0 0 0 0 0 0
0 0 -0 -0 -0 0 0 0 0 -0 -0 0 0 0 0 0 0 0 0 0 0 0 0 0 0 0 0 0 0 0 0 0 0 0 0 0 0 0 0 0 0 0 0 0 0 0 0 -0 -0
0 0 -0 0 -0 -0 0 0 0 0 0 0 0 0 0 -0 0 0 0 0 0 0 0 0 0 0 0 0 0 0 0 0 0 0 0 0 0 0 0 0 0 0 0 0 0 0 -0 -0 -0
0 -0 -0 0 0 -0 -0 -0 -0 0 0 0 0 0 0 0 0 0 0 0 0 0 0 0 0 0 0 0 0 0 0 0 0 0 0 0 0 0 0 0 0 0 0 0 0 0 0 0 0
-0 -0 0 -0 0 -0 -0 0 0 0 0 0 0 0 0 0 0 0 0 0 0 0 0 0 0 -0 -0 0 0 0 0 0 0 0 0 0 0 0 0 0 0 0 0 0 0 0 0 0 0
0 0 0 0 0 0 -0 -0 0 0 0 0 0 0 0 0 0 0 0 0 0 0 0 0 0 0 0 0 0 0 0 0 0 0 0 0 0 0 0 0 0 0 0 0 0 0 0 0 0
-0 0 0 0 0 0 0 -0 0 0 0 0 0 0 0 0 0 0 0 0 0 0 0 0 0 0 0 0 0 0 0 0 0 0 0 0 0 0 0 0 0 0 0 0 0 0 0 0 0
0 0 0 0 0 0 0 0 0 0 0 0 0 0 0 0 0 0 0 0 0 0 0 0 0 0 0 0 0 0 0 0 0 0 0 0 0 0 0 0 0 0 0 0 0 0 0 0 0
0 0 -0 0 0 0 0 0 0 0 0 0 0 0 0 0 0 0 0 0 0 0 0 0 0 0 0 0 0 0 0 0 0 0 0 0 0 0 0 0 0 0 0 0 0 0 0 0 0
0 0 0 0 0 0 0 0 0 0 0 0 0 0 0 0 0 0 0 0 0 0 0 0 0 0 0 0 0 0 0 0 0 0 0 0 0 0 0 0 0 0 0 0 0 0 0 0 0
-0 0 -0 -0 0 0 0 0 0 0 0 0 0 0 0 0 0 0 0 0 0 0 0 0 0 0 0 0 -0 0 0 0 0 0 0 0 0 0 0 0 0 0 0 0 0 0 0 0 0
-0 -0 0 -0 0 -0 0 0 0 0 0 0 0 0 0 0 0 0 0 0 0 0 0 0 0 0 0 0 0 0 0 0 0 0 0 0 0 0 0 0 0 0 0 0 0 0 0 0 0
0 -0 -0 0 0 -0 0 -0 0 0 0 0 0 0 0 0 0 0 0 1 0 0 0 0 0 0 0 0 0 0 0 0 0 0 0 0 0 0 0 0 0 0 0 0 0 0 0 0 0
-0 -0 -0 0 0 0 0 0 0 0 0 0 0 0 0 0 0 0 1 1 1 0 0 0 0 0 0 0 0 0 0 0 0 0 0 0 0 0 0 0 0 0 0 0 0 0 0 0 0
0 0 0 0 0 0 0 -0 -0 0 -0 0 0 0 0 0 0 0 0 1 1 0 0 0 0 0 0 0 0 0 0 0 0 0 0 0 0 0 0 0 0 0 0 0 0 0 0 0 0
0 0 -0 0 -0 0 0 0 -0 0 0 0 0 0 0 0 0 0 0 0 1 1 0 0 0 0 0 0 0 0 0 0 0 0 0 0 0 0 0 0 0 0 0 0 0 0 0 0 -0
0 0 -0 0 -0 -0 0 0 0 -0 0 0 0 0 0 0 0 0 0 0 1 1 0 0 0 0 0 0 -0 0 0 0 0 0 0 0 0 0 0 0 0 0 0 0 0 0 0 0 0
-0 -0 0 0 0 0 0 0 0 0 0 0 0 0 0 0 0 0 0 1 1 1 0 0 0 0 0 0 0 0 0 0 0 0 0 0 0 0 0 0 0 0 0 0 0 0 0 0 0
-0 -0 0 0 0 0 0 0 0 0 0 0 0 0 0 0 0 0 1 1 1 1 0 0 0 0 0 0 0 0 0 0 0 0 0 0 0 0 0 0 0 0 0 0 0 0 0 0 0
-0 0 0 0 0 0 0 0 -0 0 0 0 0 0 0 0 0 0 0 1 1 1 0 0 0 0 0 0 0 0 0 0 0 0 0 0 0 0 0 0 0 0 0 0 0 0 0 0 0
0 0 -0 -0 -0 0 0 0 0 -0 0 0 0 0 1 0 0 0 1 1 1 1 1 0 0 0 0 0 0 0 0 0 0 0 0 0 0 0 0 0 0 0 0 0 0 0 0 1 1
0 -0 -0 0 0 0 -0 0 0 0 0 0 0 0 0 0 0 0 1 1 1 1 1 0 0 0 0 0 0 0 0 0 0 0 0 0 0 0 0 0 0 0 0 0 0 1 0 0 0
0 0 0 0 0 0 0 0 0 0 0 0 0 0 0 0 0 0 1 1 1 1 1 0 1 1 0 0 1 0 0 0 0 0 0 0 0 0 0 0 0 0 0 0 1 1 0 0 0
0 0 0 0 -0 -0 0 0 0 0 0 0 0 1 0 0 0 0 1 1 1 1 1 1 1 0 1 1 1 0 0 0 0 0 0 0 0 0 0 0 0 0 0 0 0 0 0 0 0
Wind_Speed_500mb
2 2 9 22 15 8 25 18 20 15 25 20 18 23 21 30 29 10 18 11 11 9 2 3 4 6 6 6 5 6 10 16 16 15 14 14 13 17 22 26 27 24 20 21 21 18 16 16 16
3 14 20 30 5 14 20 8 30 27 22 15 9 2 23 24 28 25 21 14 11 9 7 6 11 8 8 7 7 9 16 21 19 10 14 14 14 18 22 24 24 21 20 19 19 16 16 14 15
5 20 34 17 7 9 21 17 21 18 13 12 3 13 7 17 13 13 17 13 8 8 1 12 9 8 9 6 8 13 19 22 21 15 12 13 15 18 22 22 20 18 15 18 17 19 18 17 16
13 27 26 13 24 15 23 17 9 7 12 9 9 21 15 8 8 11 13 9 6 7 6 13 13 5 5 5 6 12 19 26 26 17 11 12 13 17 19 19 17 13 16 15 16 19 20 20 16
19 32 13 18 19 7 19 19 12 7 10 20 7 21 24 10 14 15 11 9 7 10 6 4 21 5 2 5 6 13 21 26 23 14 7 8 11 15 16 13 13 18 22 22 22 21 19 17 14
34 2 9 24 21 12 14 7 3 7 11 15 2 12 22 14 16 10 7 7 6 6 6 14 17 8 8 3 7 14 22 25 20 13 8 8 11 14 15 16 21 24 25 25 24 22 20 17 15
29 15 16 26 22 8 20 6 16 21 9 24 11 4 15 17 14 9 8 5 5 7 6 7 5 20 15 6 7 13 21 25 20 17 15 14 17 22 21 20 24 28 27 24 23 24 23 22 18
16 12 17 29 24 22 17 13 7 22 24 11 4 9 16 21 13 9 8 6 5 7 8 5 5 6 2 7 13 16 22 29 24 24 23 27 25 31 29 23 31 28 27 27 27 27 28 23 20
19 7 20 11 28 25 16 12 7 8 2 7 7 9 8 15 14 11 7 5 6 8 6 7 3 7 10 6 12 15 22 26 29 28 23 24 11 12 11 24 34 28 30 28 31 30 28 27 28
19 22 19 18 12 21 16 6 13 8 7 7 5 6 6 13 14 12 6 2 4 4 6 2 4 5 7 4 8 6 11 9 9 15 15 13 15 18 18 21 36 38 41 39 39 40 34 27 15
32 20 5 13 14 20 16 1 5 3 5 10 3 18 12 14 12 13 8 3 5 4 5 6 3 7 8 4 2 4 7 8 14 18 19 16 12 15 14 13 18 19 26 23 24 22 21 20 15
13 10 9 12 7 5 4 4 3 5 14 9 4 8 16 14 15 12 10 5 7 6 8 8 3 5 8 5 2 6 5 6 7 13 19 17 13 14 15 15 16 19 22 26 27 24 26 22 20
23 7 4 4 4 7 7 14 9 10 4 5 3 9 15 14 13 13 12 9 9 7 7 3 9 9 7 8 4 1 4 5 6 10 17 15 13 12 15 16 16 18 21 23 24 25 26 24 20
4 4 2 6 3 8 14 20 4 10 8 12 10 14 15 14 15 16 16 14 12 12 10 7 6 5 4 7 6 2 2 8 7 7 9 14 12 16 14 17 19 21 20 23 23 26 26 24 22
6 6 31 14 10 5 14 24 15 1 7 12 14 15 16 16 18 20 18 18 18 17 18 12 11 9 11 6 6 1 1 4 3 6 11 12 13 15 19 18 20 23 21 23 23 24 24 22 20
10 27 19 27 3 13 14 21 17 8 9 12 15 16 19 19 20 20 22 21 25 23 18 14 15 7 13 7 5 7 8 6 4 6 7 9 12 18 15 18 21 23 21 22 23 23 23 23 19
58 12 14 24 25 5 10 12 22 12 6 9 15 15 19 24 27 23 25 27 29 31 26 16 11 13 7 13 10 3 14 3 7 9 8 12 10 14 16 17 21 23 20 20 22 22 23 22 22
27 19 11 15 27 28 18 19 26 21 8 6 6 7 17 25 29 30 31 29 30 32 28 26 13 2 5 7 13 7 9 1 11 10 10 12 9 13 16 14 21 22 20 19 22 24 22 21 25
15 31 40 21 17 26 21 11 21 20 20 20 14 7 4 7 15 26 29 31 34 36 32 30 18 12 8 6 4 8 2 8 10 11 14 12 10 11 16 13 17 18 19 21 24 22 22 19 24
46 32 27 11 6 17 12 8 16 17 8 16 18 9 4 4 5 13 29 37 42 41 35 34 26 17 18 8 6 4 7 7 10 10 12 14 12 12 14 15 14 19 16 15 21 20 21 18 21
20 26 20 20 26 11 12 31 31 15 24 23 18 9 10 15 17 16 19 38 44 44 39 39 28 21 25 10 3 4 3 7 7 10 12 12 13 12 14 16 16 15 16 16 19 19 18 18 19
9 22 25 18 26 11 23 13 38 11 27 28 20 22 24 20 21 24 23 17 40 39 36 33 28 24 27 10 8 8 7 2 9 9 12 13 11 11 12 15 15 16 12 16 15 16 14 19 17
23 19 33 42 47 19 25 11 11 58 20 24 18 19 20 20 24 29 25 24 31 34 29 30 22 19 22 12 11 5 5 5 7 8 16 13 12 9 10 12 14 14 12 17 21 22 21 17 20
21 33 14 35 16 9 19 22 4 5 19 18 18 21 17 21 26 22 20 16 18 23 23 27 23 20 21 20 10 5 8 3 3 10 8 9 9 10 13 11 12 14 15 18 20 22 25 26 30
42 47 18 15 6 10 30 8 9 23 24 19 15 21 19 22 25 23 17 12 18 20 25 24 24 19 22 20 14 8 4 6 6 8 11 13 10 10 12 11 12 12 17 20 23 26 31 33 32
32 19 15 26 22 25 12 10 23 23 21 16 15 18 17 21 22 20 16 10 14 19 25 22 21 17 21 20 19 14 7 5 7 11 11 8 10 11 14 11 14 18 21 24 28 30 33 36 39
4 13 33 22 24 9 17 28 37 47 20 20 18 15 14 16 17 14 12 7 7 17 25 25 19 16 19 20 21 17 12 9 12 15 11 11 18 13 14 17 20 23 27 30 35 36 42 43 48
22 22 22 12 12 20 25 17 9 28 25 21 15 15 10 11 15 13 10 5 5 12 21 22 16 12 13 18 20 18 16 14 14 16 18 19 19 18 19 21 24 28 31 35 42 43 42 44 49
18 17 7 11 14 21 21 12 27 26 19 17 14 14 12 13 14 12 9 5 2 7 16 21 18 10 8 12 18 18 17 15 17 19 21 22 22 22 22 25 28 31 35 38 37 42 42 40 41
13 22 22 14 25 26 20 14 45 18 25 17 10 9 12 12 15 15 10 5 1 5 12 19 19 15 5 5 12 17 16 16 19 21 21 22 22 22 24 27 30 33 33 34 38 31 33 33 34
Wind_Direction_500mb
64 256 283 270 250 212 93 90 92 73 81 60 59 27 60 31 13 60 118 98 91 87 332 348 26 22 21 12 25 11 2 340 348 341 314 322 322 328 337 341 342 344 352 14 10 3 340 325 302
65 264 269 266 216 17 70 88 69 65 71 82 92 305 51 66 74 109 117 96 92 72 51 203 336 7 11 16 17 10 2 358 357 348 314 321 327 334 340 343 349 356 8 14 15 11 11 344 321
170 257 262 240 63 67 79 56 70 79 64 25 127 60 47 95 92 90 94 99 83 112 39 300 316 3 3 13 6 7 359 359 353 343 326 322 327 337 338 343 353 1 10 6 5 356 351 347 337
279 243 244 231 58 34 68 74 53 95 105 83 1 87 102 73 116 102 117 99 41 16 226 275 329 6 343 354 4 0 0 358 349 338 316 315 321 328 333 337 356 357 352 350 342 335 335 335 329
252 264 251 87 73 87 68 66 360 67 97 37 19 105 81 108 119 122 121 103 65 51 103 8 343 330 341 339 352 357 359 355 349 349 345 327 327 332 339 345 338 336 339 338 333 330 332 332 324
271 219 247 72 85 106 82 93 346 50 67 83 116 93 78 135 141 136 120 94 71 42 54 14 334 357 320 327 355 0 358 357 6 16 19 9 341 345 345 342 337 336 337 337 335 338 339 338 333
265 39 48 92 117 121 87 55 20 52 350 50 84 359 102 166 152 152 135 99 74 33 12 23 215 341 354 320 336 355 355 2 15 21 20 12 8 3 4 350 349 339 342 349 348 341 337 332 330
287 149 76 61 83 96 95 99 84 43 66 76 41 354 115 153 167 160 150 119 52 31 21 8 325 164 80 83 354 352 3 17 21 23 22 30 14 2 353 17 330 343 349 348 348 345 343 343 360
275 42 71 52 87 108 134 122 85 76 55 56 71 32 62 146 167 171 161 142 49 340 25 24 143 242 139 82 333 8 3 15 21 6 2 24 11 328 343 317 352 353 0 357 1 357 7 17 8
292 74 64 59 357 95 100 36 106 232 130 157 160 128 141 160 169 175 168 107 354 11 36 32 143 188 182 233 323 346 342 343 18 7 14 8 347 340 359 338 349 355 357 0 349 355 10 359 335
43 69 91 110 45 350 74 55 55 293 78 66 72 132 159 167 179 180 191 144 59 92 66 64 78 159 192 227 262 312 327 359 347 1 16 357 10 343 348 347 339 344 339 339 350 350 342 341 338
137 87 340 81 127 288 321 344 267 278 64 42 82 119 162 175 171 194 177 149 121 99 91 77 144 156 189 199 357 309 349 349 345 359 15 2 0 358 357 346 353 348 345 349 349 345 343 347 337
21 62 257 175 255 277 325 282 273 241 241 160 140 159 174 175 182 170 170 155 149 126 118 157 129 168 184 128 226 262 1 328 10 9 354 21 5 7 354 353 354 350 356 353 350 341 344 344 339
339 326 105 182 228 203 256 261 175 141 215 192 184 181 184 182 177 179 188 188 173 162 145 171 139 122 157 154 156 168 329 332 12 337 351 10 16 8 4 356 357 351 356 356 353 347 348 346 339
265 274 341 128 78 313 298 267 203 206 195 208 204 199 201 195 188 200 200 203 201 186 172 154 147 141 152 155 104 80 194 263 294 318 342 7 9 8 21 358 353 350 358 355 355 353 351 347 350
194 336 157 91 83 92 297 96 105 131 187 216 212 223 215 215 218 208 209 203 198 193 186 148 159 149 104 175 134 137 253 238 298 306 311 345 354 347 11 353 351 356 356 349 356 354 352 350 351
284 37 3 135 73 336 225 310 136 138 194 229 221 222 226 228 230 225 219 214 206 198 195 183 147 146 87 75 158 133 247 141 279 282 295 297 341 345 2 340 347 5 353 351 351 352 351 351 346
357 341 30 40 42 330 20 1 69 123 120 146 210 208 225 230 236 231 228 223 215 203 191 195 171 102 103 94 81 315 297 333 266 271 280 290 308 319 335 347 346 358 350 348 351 349 347 350 343
295 43 312 61 26 327 36 18 73 98 140 146 172 168 227 284 250 239 237 230 219 206 197 201 210 211 196 163 99 325 353 260 271 281 278 279 296 306 321 330 334 340 342 351 352 347 348 352 346
329 342 14 40 36 299 5 293 111 103 95 80 88 82 53 336 285 263 239 223 218 210 203 204 219 207 207 201 179 231 227 259 257 255 267 280 285 301 315 309 324 326 340 337 345 349 352 350 347
164 345 357 337 300 243 34 65 304 147 105 103 106 124 76 35 3 342 303 222 212 205 203 209 224 220 212 201 256 311 329 348 338 308 318 308 297 289 299 304 301 315 337 322 348 342 344 350 354
44 4 313 340 303 24 315 112 321 189 121 91 63 48 35 20 14 359 335 292 204 202 202 204 220 225 222 210 219 215 218 254 285 308 292 288 283 288 299 299 296 297 302 318 332 318 343 337 326
326 317 31 327 311 49 334 11 68 287 70 94 79 58 32 25 25 11 4 353 176 185 198 194 209 222 208 216 193 262 338 309 318 310 304 321 291 308 308 284 284 290 307 292 307 325 315 308 306
306 284 135 287 355 244 287 328 335 285 42 46 72 68 31 22 24 27 27 78 141 172 181 181 203 210 206 219 211 207 227 255 279 284 335 330 302 300 288 288 282 289 294 312 303 294 300 298 294
341 297 322 287 287 2 16 310 68 54 49 42 55 65 40 25 34 37 51 89 139 165 171 178 188 220 209 214 216 234 274 274 309 342 323 335 316 298 286 291 296 290 283 291 295 296 294 294 296
216 342 116 281 330 9 267 270 58 47 102 84 89 68 39 32 43 46 54 96 147 168 170 180 198 205 216 213 218 219 255 266 288 294 314 320 298 298 294 302 298 295 295 293 292 297 293 290 290
202 249 262 324 307 204 340 73 33 292 55 84 84 65 36 35 41 51 58 70 162 172 177 175 195 208 215 222 217 218 246 245 236 255 294 315 304 302 303 297 297 299 298 296 294 295 292 296 296
262 305 295 205 281 336 329 94 180 21 28 26 78 62 33 26 35 32 45 66 156 182 184 179 191 200 224 228 224 219 236 252 260 272 280 288 294 295 296 299 302 301 299 299 297 298 299 301 302
213 238 292 286 64 309 316 20 17 354 40 20 32 31 26 12 35 22 40 39 152 188 193 196 200 215 201 221 213 219 239 260 271 280 286 283 285 292 297 301 302 303 301 300 299 304 308 319 328
270 305 329 317 334 333 315 28 343 49 38 24 357 56 16 11 21 24 35 46 66 199 197 208 220 216 185 202 218 234 249 267 278 280 283 283 286 292 297 302 303 305 309 305 315 330 323 324 326
Wind_Speed_850mb
2 2 9 22 15 8 25 18 20 15 25 20 18 23 21 30 29 10 18 11 11 9 2 3 4 6 6 6 5 6 10 16 16 15 14 14 13 17 22 26 27 24 20 21 21 18 16 16 16
3 14 20 30 5 14 20 8 30 27 22 15 9 2 23 24 28 25 21 14 11 9 7 6 11 8 8 7 7 9 16 21 19 10 14 14 14 18 22 24 24 21 20 19 19 16 16 14 15
5 20 34 17 7 9 21 17 21 18 13 12 3 13 7 17 13 13 17 13 8 8 1 12 9 8 9 6 8 13 19 22 21 15 12 13 15 18 22 22 20 18 15 18 17 19 18 17 16
13 27 26 13 24 15 23 17 9 7 12 9 9 21 15 8 8 11 13 9 6 7 6 13 13 5 5 5 6 12 19 26 26 17 11 12 13 17 19 19 17 13 16 15 16 19 20 20 16
19 32 13 18 19 7 19 19 12 7 10 20 7 21 24 10 14 15 11 9 7 10 6 4 21 5 2 5 6 13 21 26 23 14 7 8 11 15 16 13 13 18 22 22 22 21 19 17 14
34 2 9 24 21 12 14 7 3 7 11 15 2 12 22 14 16 10 7 7 6 6 6 14 17 8 8 3 7 14 22 25 20 13 8 8 11 14 15 16 21 24 25 25 24 22 20 17 15
29 15 16 26 22 8 20 6 16 21 9 24 11 4 15 17 14 9 8 5 5 7 6 7 5 20 15 6 7 13 21 25 20 17 15 14 17 22 21 20 24 28 27 24 23 24 23 22 18
16 12 17 29 24 22 17 13 7 22 24 11 4 9 16 21 13 9 8 6 5 7 8 5 5 6 2 7 13 16 22 29 24 24 23 27 25 31 29 23 31 28 27 27 27 27 28 23 20
19 7 20 11 28 25 16 12 7 8 2 7 7 9 8 15 14 11 7 5 6 8 6 7 3 7 10 6 12 15 22 26 29 28 23 24 11 12 11 24 34 28 30 28 31 30 28 27 28
19 22 19 18 12 21 16 6 13 8 7 7 5 6 6 13 14 12 6 2 4 4 6 2 4 5 7 4 8 6 11 9 9 15 15 13 15 18 18 21 36 38 41 39 39 40 34 27 15
32 20 5 13 14 20 16 1 5 3 5 10 3 18 12 14 12 13 8 3 5 4 5 6 3 7 8 4 2 4 7 8 14 18 19 16 12 15 14 13 18 19 26 23 24 22 21 20 15
13 10 9 12 7 5 4 4 3 5 14 9 4 8 16 14 15 12 10 5 7 6 8 8 3 5 8 5 2 6 5 6 7 13 19 17 13 14 15 15 16 19 22 26 27 24 26 22 20
23 7 4 4 4 7 7 14 9 10 4 5 3 9 15 14 13 13 12 9 9 7 7 3 9 9 7 8 4 1 4 5 6 10 17 15 13 12 15 16 16 18 21 23 24 25 26 24 20
4 4 2 6 3 8 14 20 4 10 8 12 10 14 15 14 15 16 16 14 12 12 10 7 6 5 4 7 6 2 2 8 7 7 9 14 12 16 14 17 19 21 20 23 23 26 26 24 22
6 6 31 14 10 5 14 24 15 1 7 12 14 15 16 16 18 20 18 18 18 17 18 12 11 9 11 6 6 1 1 4 3 6 11 12 13 15 19 18 20 23 21 23 23 24 24 22 20
10 27 19 27 3 13 14 21 17 8 9 12 15 16 19 19 20 20 22 21 25 23 18 14 15 7 13 7 5 7 8 6 4 6 7 9 12 18 15 18 21 23 21 22 23 23 23 23 19
58 12 14 24 25 5 10 12 22 12 6 9 15 15 19 24 27 23 25 27 29 31 26 16 11 13 7 13 10 3 14 3 7 9 8 12 10 14 16 17 21 23 20 20 22 22 23 22 22
27 19 11 15 27 28 18 19 26 21 8 6 6 7 17 25 29 30 31 29 30 32 28 26 13 2 5 7 13 7 9 1 11 10 10 12 9 13 16 14 21 22 20 19 22 24 22 21 25
15 31 40 21 17 26 21 11 21 20 20 20 14 7 4 7 15 26 29 31 34 36 32 30 18 12 8 6 4 8 2 8 10 11 14 12 10 11 16 13 17 18 19 21 24 22 22 19 24
46 32 27 11 6 17 12 8 16 17 8 16 18 9 4 4 5 13 29 37 42 41 35 34 26 17 18 8 6 4 7 7 10 10 12 14 12 12 14 15 14 19 16 15 21 20 21 18 21
20 26 20 20 26 11 12 31 31 15 24 23 18 9 10 15 17 16 19 38 44 44 39 39 28 21 25 10 3 4 3 7 7 10 12 12 13 12 14 16 16 15 16 16 19 19 18 18 19
9 22 25 18 26 11 23 13 38 11 27 28 20 22 24 20 21 24 23 17 40 39 36 33 28 24 27 10 8 8 7 2 9 9 12 13 11 11 12 15 15 16 12 16 15 16 14 19 17
23 19 33 42 47 19 25 11 11 58 20 24 18 19 20 20 24 29 25 24 31 34 29 30 22 19 22 12 11 5 5 5 7 8 16 13 12 9 10 12 14 14 12 17 21 22 21 17 20
21 33 14 35 16 9 19 22 4 5 19 18 18 21 17 21 26 22 20 16 18 23 23 27 23 20 21 20 10 5 8 3 3 10 8 9 9 10 13 11 12 14 15 18 20 22 25 26 30
42 47 18 15 6 10 30 8 9 23 24 19 15 21 19 22 25 23 17 12 18 20 25 24 24 19 22 20 14 8 4 6 6 8 11 13 10 10 12 11 12 12 17 20 23 26 31 33 32
32 19 15 26 22 25 12 10 23 23 21 16 15 18 17 21 22 20 16 10 14 19 25 22 21 17 21 20 19 14 7 5 7 11 11 8 10 11 14 11 14 18 21 24 28 30 33 36 39
4 13 33 22 24 9 17 28 37 47 20 20 18 15 14 16 17 14 12 7 7 17 25 25 19 16 19 20 21 17 12 9 12 15 11 11 18 13 14 17 20 23 27 30 35 36 42 43 48
22 22 22 12 12 20 25 17 9 28 25 21 15 15 10 11 15 13 10 5 5 12 21 22 16 12 13 18 20 18 16 14 14 16 18 19 19 18 19 21 24 28 31 35 42 43 42 44 49
18 17 7 11 14 21 21 12 27 26 19 17 14 14 12 13 14 12 9 5 2 7 16 21 18 10 8 12 18 18 17 15 17 19 21 22 22 22 22 25 28 31 35 38 37 42 42 40 41
13 22 22 14 25 26 20 14 45 18 25 17 10 9 12 12 15 15 10 5 1 5 12 19 19 15 5 5 12 17 16 16 19 21 21 22 22 22 24 27 30 33 33 34 38 31 33 33 34
Wind_Direction_850mb
64 256 283 270 250 212 93 90 92 73 81 60 59 27 60 31 13 60 118 98 91 87 332 348 26 22 21 12 25 11 2 340 348 341 314 322 322 328 337 341 342 344 352 14 10 3 340 325 302
65 264 269 266 216 17 70 88 69 65 71 82 92 305 51 66 74 109 117 96 92 72 51 203 336 7 11 16 17 10 2 358 357 348 314 321 327 334 340 343 349 356 8 14 15 11 11 344 321
170 257 262 240 63 67 79 56 70 79 64 25 127 60 47 95 92 90 94 99 83 112 39 300 316 3 3 13 6 7 359 359 353 343 326 322 327 337 338 343 353 1 10 6 5 356 351 347 337
279 243 244 231 58 34 68 74 53 95 105 83 1 87 102 73 116 102 117 99 41 16 226 275 329 6 343 354 4 0 0 358 349 338 316 315 321 328 333 337 356 357 352 350 342 335 335 335 329
252 264 251 87 73 87 68 66 360 67 97 37 19 105 81 108 119 122 121 103 65 51 103 8 343 330 341 339 352 357 359 355 349 349 345 327 327 332 339 345 338 336 339 338 333 330 332 332 324
271 219 247 72 85 106 82 93 346 50 67 83 116 93 78 135 141 136 120 94 71 42 54 14 334 357 320 327 355 0 358 357 6 16 19 9 341 345 345 342 337 336 337 337 335 338 339 338 333
265 39 48 92 117 121 87 55 20 52 350 50 84 359 102 166 152 152 135 99 74 33 12 23 215 341 354 320 336 355 355 2 15 21 20 12 8 3 4 350 349 339 342 349 348 341 337 332 330
287 149 76 61 83 96 95 99 84 43 66 76 41 354 115 153 167 160 150 119 52 31 21 8 325 164 80 83 354 352 3 17 21 23 22 30 14 2 353 17 330 343 349 348 348 345 343 343 360
275 42 71 52 87 108 134 122 85 76 55 56 71 32 62 146 167 171 161 142 49 340 25 24 143 242 139 82 333 8 3 15 21 6 2 24 11 328 343 317 352 353 0 357 1 357 7 17 8
292 74 64 59 357 95 100 36 106 232 130 157 160 128 141 160 169 175 168 107 354 11 36 32 143 188 182 233 323 346 342 343 18 7 14 8 347 340 359 338 349 355 357 0 349 355 10 359 335
43 69 91 110 45 350 74 55 55 293 78 66 72 132 159 167 179 180 191 144 59 92 66 64 78 159 192 227 262 312 327 359 347 1 16 357 10 343 348 347 339 344 339 339 350 350 342 341 338
137 87 340 81 127 288 321 344 267 278 64 42 82 119 162 175 171 194 177 149 121 99 91 77 144 156 189 199 357 309 349 349 345 359 15 2 0 358 357 346 353 348 345 349 349 345 343 347 337
21 62 257 175 255 277 325 282 273 241 241 160 140 159 174 175 182 170 170 155 149 126 118 157 129 168 184 128 226 262 1 328 10 9 354 21 5 7 354 353 354 350 356 353 350 341 344 344 339
339 326 105 182 228 203 256 261 175 141 215 192 184 181 184 182 177 179 188 188 173 162 145 171 139 122 157 154 156 168 329 332 12 337 351 10 16 8 4 356 357 351 356 356 353 347 348 346 339
265 274 341 128 78 313 298 267 203 206 195 208 204 199 201 195 188 200 200 203 201 186 172 154 147 141 152 155 104 80 194 263 294 318 342 7 9 8 21 358 353 350 358 355 355 353 351 347 350
194 336 157 91 83 92 297 96 105 131 187 216 212 223 215 215 218 208 209 203 198 193 186 148 159 149 104 175 134 137 253 238 298 306 311 345 354 347 11 353 351 356 356 349 356 354 352 350 351
284 37 3 135 73 336 225 310 136 138 194 229 221 222 226 228 230 225 219 214 206 198 195 183 147 146 87 75 158 133 247 141 279 282 295 297 341 345 2 340 347 5 353 351 351 352 351 351 346
357 341 30 40 42 330 20 1 69 123 120 146 210 208 225 230 236 231 228 223 215 203 191 195 171 102 103 94 81 315 297 333 266 271 280 290 308 319 335 347 346 358 350 348 351 349 347 350 343
295 43 312 61 26 327 36 18 73 98 140 146 172 168 227 284 250 239 237 230 219 206 197 201 210 211 196 163 99 325 353 260 271 281 278 279 296 306 321 330 334 340 342 351 352 347 348 352 346
329 342 14 40 36 299 5 293 111 103 95 80 88 82 53 336 285 263 239 223 218 210 203 204 219 207 207 201 179 231 227 259 257 255 267 280 285 301 315 309 324 326 340 337 345 349 352 350 347
164 345 357 337 300 243 34 65 304 147 105 103 106 124 76 35 3 342 303 222 212 205 203 209 224 220 212 201 256 311 329 348 338 308 318 308 297 289 299 304 301 315 337 322 348 342 344 350 354
44 4 313 340 303 24 315 112 321 189 121 91 63 48 35 20 14 359 335 292 204 202 202 204 220 225 222 210 219 215 218 254 285 308 292 288 283 288 299 299 296 297 302 318 332 318 343 337 326
326 317 31 327 311 49 334 11 68 287 70 94 79 58 32 25 25 11 4 353 176 185 198 194 209 222 208 216 193 262 338 309 318 310 304 321 291 308 308 284 284 290 307 292 307 325 315 308 306
306 284 135 287 355 244 287 328 335 285 42 46 72 68 31 22 24 27 27 78 141 172 181 181 203 210 206 219 211 207 227 255 279 284 335 330 302 300 288 288 282 289 294 312 303 294 300 298 294
341 297 322 287 287 2 16 310 68 54 49 42 55 65 40 25 34 37 51 89 139 165 171 178 188 220 209 214 216 234 274 274 309 342 323 335 316 298 286 291 296 290 283 291 295 296 294 294 296
216 342 116 281 330 9 267 270 58 47 102 84 89 68 39 32 43 46 54 96 147 168 170 180 198 205 216 213 218 219 255 266 288 294 314 320 298 298 294 302 298 295 295 293 292 297 293 290 290
202 249 262 324 307 204 340 73 33 292 55 84 84 65 36 35 41 51 58 70 162 172 177 175 195 208 215 222 217 218 246 245 236 255 294 315 304 302 303 297 297 299 298 296 294 295 292 296 296
262 305 295 205 281 336 329 94 180 21 28 26 78 62 33 26 35 32 45 66 156 182 184 179 191 200 224 228 224 219 236 252 260 272 280 288 294 295 296 299 302 301 299 299 297 298 299 301 302
213 238 292 286 64 309 316 20 17 354 40 20 32 31 26 12 35 22 40 39 152 188 193 196 200 215 201 221 213 219 239 260 271 280 286 283 285 292 297 301 302 303 301 300 299 304 308 319 328
270 305 329 317 334 333 315 28 343 49 38 24 357 56 16 11 21 24 35 46 66 199 197 208 220 216 185 202 218 234 249 267 278 280 283 283 286 292 297 302 303 305 309 305 315 330 323 324 326